When you browse on this site, cookies collect data to enhance your experience and personalize the content and advertising you see.
Visit our Privacy Policy to learn more. By continuing to use the site, you agree to this use of cookies and data.
  • en Suisse
  • Liste des pays
  • À 7 jours
  • Température de l'eau
  • Carte satellitaire
  • Carte météo
  • Widgets météo
  • user-avatar
    Se connecter

    Météo par heure à Bafoussam

    Ce jour, 9 Décembre, Dimanche

    Heure Température Précipitation Vent Pression Humidité
    00:00 +18°C° 0 mm 1 m/s 645 mmHg 67%
    01:00 +18°C° 0 mm 1 m/s 645 mmHg 66%
    02:00 +18°C° 0 mm 1 m/s 645 mmHg 64%
    03:00 +18°C° 0 mm 1 m/s 645 mmHg 61%
    04:00 +18°C° 0 mm 1 m/s 645 mmHg 59%
    05:00 +18°C° 0 mm 1 m/s 645 mmHg 57%
    06:00 +18°C° 0 mm 1 m/s 645 mmHg 56%
    07:00 +19°C° 0 mm 1 m/s 646 mmHg 54%
    08:00 +22°C° 0 mm 1 m/s 647 mmHg 46%
    09:00 +25°C° 0 mm 1 m/s 648 mmHg 38%
    10:00 +28°C° 0 mm 1 m/s 649 mmHg 30%
    11:00 +29°C° 0 mm 1 m/s 648 mmHg 28%
    12:00 +30°C° 0 mm 1 m/s 648 mmHg 26%
    13:00 +30°C° 0 mm 1 m/s 648 mmHg 26%
    14:00 +30°C° 0 mm 1 m/s 647 mmHg 27%
    15:00 +30°C° 0 mm 1 m/s 647 mmHg 28%
    16:00 +29°C° 0 mm 1 m/s 646 mmHg 29%
    17:00 +27°C° 0 mm 1 m/s 646 mmHg 35%
    18:00 +24°C° 0 mm 1 m/s 646 mmHg 41%
    19:00 +20°C° 0 mm 0 m/s 645 mmHg 47%
    20:00 +19°C° 0 mm 0 m/s 645 mmHg 50%
    21:00 +21°C° 0 mm 1 m/s 646 mmHg 53%
    22:00 +20°C° 0 mm 1 m/s 646 mmHg 56%
    23:00 +20°C° 0 mm 1 m/s 646 mmHg 58%

    Demain, 10 Décembre, Lundi

    Heure Température Précipitation Vent Pression Humidité
    00:00 +19°C° 0 mm 1 m/s 646 mmHg 59%
    01:00 +19°C° 0 mm 1 m/s 646 mmHg 60%
    02:00 +19°C° 0 mm 1 m/s 646 mmHg 58%
    03:00 +19°C° 0 mm 1 m/s 645 mmHg 56%
    04:00 +18°C° 0 mm 1 m/s 645 mmHg 54%
    05:00 +18°C° 0 mm 1 m/s 645 mmHg 53%
    06:00 +18°C° 0 mm 1 m/s 645 mmHg 51%
    07:00 +18°C° 0 mm 1 m/s 646 mmHg 50%
    08:00 +21°C° 0 mm 1 m/s 647 mmHg 43%
    09:00 +24°C° 0 mm 1 m/s 648 mmHg 37%
    10:00 +27°C° 0 mm 1 m/s 649 mmHg 30%
    11:00 +28°C° 0 mm 1 m/s 649 mmHg 28%
    12:00 +30°C° 0 mm 1 m/s 648 mmHg 26%
    13:00 +31°C° 0 mm 2 m/s 648 mmHg 24%
    14:00 +30°C° 0 mm 1 m/s 647 mmHg 25%
    15:00 +30°C° 0 mm 1 m/s 646 mmHg 26%
    16:00 +30°C° 0 mm 1 m/s 646 mmHg 27%
    17:00 +27°C° 0 mm 1 m/s 645 mmHg 33%
    18:00 +25°C° 0 mm 1 m/s 645 mmHg 39%
    19:00 +23°C° 0 mm 1 m/s 645 mmHg 45%
    20:00 +22°C° 0 mm 1 m/s 645 mmHg 50%
    21:00 +21°C° 0 mm 1 m/s 646 mmHg 55%
    22:00 +20°C° 0 mm 1 m/s 646 mmHg 61%
    23:00 +20°C° 0 mm 1 m/s 646 mmHg 61%

    Après-demain, 11 Décembre, Mardi

    Heure Température Précipitation Vent Pression Humidité
    00:00 +20°C° 0 mm 1 m/s 646 mmHg 61%
    01:00 +19°C° 0 mm 1 m/s 645 mmHg 62%
    02:00 +19°C° 0 mm 1 m/s 645 mmHg 59%
    03:00 +18°C° 0 mm 1 m/s 645 mmHg 57%
    04:00 +18°C° 0 mm 1 m/s 644 mmHg 54%
    05:00 +18°C° 0 mm 1 m/s 645 mmHg 54%
    06:00 +18°C° 0 mm 1 m/s 645 mmHg 54%
    07:00 +16°C° 0 mm 0 m/s 645 mmHg 54%
    08:00 +21°C° 0 mm 1 m/s 646 mmHg 48%
    09:00 +24°C° 0 mm 1 m/s 647 mmHg 41%
    10:00 +27°C° 0 mm 1 m/s 649 mmHg 34%
    11:00 +28°C° 0 mm 1 m/s 648 mmHg 32%
    12:00 +29°C° 0 mm 1 m/s 648 mmHg 29%
    13:00 +30°C° 0 mm 2 m/s 647 mmHg 26%
    14:00 +29°C° 0 mm 2 m/s 646 mmHg 28%
    15:00 +29°C° 0 mm 2 m/s 646 mmHg 29%
    16:00 +29°C° 0 mm 2 m/s 645 mmHg 30%
    17:00 +26°C° 0 mm 1 m/s 645 mmHg 38%
    18:00 +24°C° 0 mm 1 m/s 645 mmHg 46%
    19:00 +20°C° 0 mm 0 m/s 645 mmHg 53%
    20:00 +21°C° 0 mm 1 m/s 645 mmHg 57%
    21:00 +21°C° 0 mm 1 m/s 645 mmHg 62%
    22:00 +20°C° 0 mm 1 m/s 646 mmHg 66%
    23:00 +20°C° 0 mm 1 m/s 645 mmHg 65%

    12 Décembre, Mercredi

    Heure Température Précipitation Vent Pression Humidité
    00:00 +19°C° 0 mm 1 m/s 645 mmHg 65%
    01:00 +19°C° 0 mm 1 m/s 645 mmHg 65%
    02:00 +19°C° 0 mm 1 m/s 644 mmHg 62%
    03:00 +18°C° 0 mm 1 m/s 644 mmHg 59%
    04:00 +18°C° 0 mm 1 m/s 644 mmHg 56%
    05:00 +18°C° 0 mm 1 m/s 644 mmHg 55%
    06:00 +18°C° 0 mm 1 m/s 645 mmHg 54%
    07:00 +18°C° 0 mm 1 m/s 645 mmHg 53%
    08:00 +21°C° 0 mm 1 m/s 647 mmHg 45%
    09:00 +25°C° 0 mm 1 m/s 648 mmHg 36%
    10:00 +28°C° 0 mm 1 m/s 649 mmHg 27%
    11:00 +29°C° 0 mm 1 m/s 648 mmHg 25%
    12:00 +30°C° 0 mm 2 m/s 648 mmHg 23%
    13:00 +31°C° 0 mm 2 m/s 647 mmHg 21%
    14:00 +30°C° 0 mm 2 m/s 647 mmHg 22%
    15:00 +30°C° 0 mm 2 m/s 646 mmHg 23%
    16:00 +30°C° 0 mm 2 m/s 645 mmHg 23%
    17:00 +27°C° 0 mm 1 m/s 645 mmHg 29%
    18:00 +25°C° 0 mm 1 m/s 645 mmHg 35%
    19:00 +20°C° 0 mm 0 m/s 645 mmHg 40%
    20:00 +22°C° 0 mm 1 m/s 645 mmHg 46%
    21:00 +21°C° 0 mm 1 m/s 645 mmHg 51%
    22:00 +20°C° 0 mm 1 m/s 646 mmHg 57%
    23:00 +20°C° 0 mm 1 m/s 645 mmHg 58%

    13 Décembre, Jeudi

    Heure Température Précipitation Vent Pression Humidité
    00:00 +19°C° 0 mm 1 m/s 645 mmHg 60%
    01:00 +19°C° 0 mm 1 m/s 645 mmHg 62%
    02:00 +19°C° 0 mm 1 m/s 645 mmHg 61%
    03:00 +18°C° 0 mm 1 m/s 645 mmHg 59%
    04:00 +18°C° 0 mm 1 m/s 644 mmHg 58%
    05:00 +18°C° 0 mm 1 m/s 645 mmHg 54%
    06:00 +18°C° 0 mm 1 m/s 645 mmHg 50%
    07:00 +18°C° 0 mm 1 m/s 646 mmHg 47%
    08:00 +22°C° 0 mm 1 m/s 647 mmHg 40%
    09:00 +25°C° 0 mm 1 m/s 648 mmHg 33%
    10:00 +28°C° 0 mm 1 m/s 649 mmHg 26%
    11:00 +29°C° 0 mm 2 m/s 648 mmHg 25%
    12:00 +30°C° 0 mm 2 m/s 648 mmHg 23%
    13:00 +31°C° 0 mm 2 m/s 647 mmHg 22%
    14:00 +30°C° 0 mm 2 m/s 647 mmHg 23%
    15:00 +30°C° 0 mm 2 m/s 646 mmHg 24%
    16:00 +30°C° 0 mm 2 m/s 645 mmHg 25%
    17:00 +27°C° 0 mm 2 m/s 645 mmHg 31%
    18:00 +25°C° 0 mm 1 m/s 645 mmHg 38%
    19:00 +20°C° 0 mm 0 m/s 645 mmHg 44%
    20:00 +22°C° 0 mm 1 m/s 645 mmHg 47%
    21:00 +21°C° 0 mm 1 m/s 645 mmHg 50%
    22:00 +20°C° 0 mm 1 m/s 645 mmHg 54%
    23:00 +20°C° 0 mm 1 m/s 645 mmHg 52%

    14 Décembre, Vendredi

    Heure Température Précipitation Vent Pression Humidité
    00:00 +20°C° 0 mm 1 m/s 645 mmHg 51%
    01:00 +19°C° 0 mm 1 m/s 644 mmHg 49%
    02:00 +19°C° 0 mm 1 m/s 644 mmHg 47%
    03:00 +19°C° 0 mm 1 m/s 644 mmHg 44%
    04:00 +18°C° 0 mm 1 m/s 644 mmHg 42%
    05:00 +18°C° 0 mm 1 m/s 645 mmHg 41%
    06:00 +18°C° 0 mm 1 m/s 645 mmHg 41%
    07:00 +18°C° 0 mm 1 m/s 646 mmHg 41%
    08:00 +21°C° 0 mm 1 m/s 647 mmHg 35%
    09:00 +25°C° 0 mm 2 m/s 648 mmHg 30%
    10:00 +28°C° 0 mm 2 m/s 649 mmHg 24%
    11:00 +29°C° 0 mm 2 m/s 648 mmHg 23%
    12:00 +30°C° 0 mm 2 m/s 648 mmHg 21%
    13:00 +31°C° 0 mm 3 m/s 647 mmHg 20%
    14:00 +30°C° 0 mm 3 m/s 647 mmHg 20%
    15:00 +30°C° 0 mm 2 m/s 646 mmHg 20%
    16:00 +30°C° 0 mm 2 m/s 646 mmHg 20%
    17:00 +28°C° 0 mm 2 m/s 645 mmHg 25%
    18:00 +25°C° 0 mm 1 m/s 645 mmHg 29%
    19:00 +23°C° 0 mm 1 m/s 645 mmHg 34%
    20:00 +22°C° 0 mm 1 m/s 645 mmHg 38%
    21:00 +21°C° 0 mm 1 m/s 645 mmHg 43%
    22:00 +20°C° 0 mm 1 m/s 646 mmHg 47%
    23:00 +20°C° 0 mm 1 m/s 645 mmHg 48%
    Voir plus